Overview Statistics Trail Chart Weather Telemetry Raw packets
 

This is the latest recevied weather packets stored in our database for station/object KE8WMS. If no packets are shown the sender has not sent any weather packets the latest 10 day(s).

<< 36 37 38 39 40 41 42 >>
Time Temp. Humidity Pressure Rain* Wind** Luminosity Snow
1777594658 9.44° C 57% 1011.2 hPa 0 mm - 4 W/m² -
1777594355 10° C 57% 1011.4 hPa 0 mm - 6 W/m² -
1777594051 10° C 55% 1011.2 hPa 0 mm - 9 W/m² -
1777593747 10° C 56% 1011.2 hPa 0 mm - 12 W/m² -
1777593443 10° C 55% 1011.1 hPa 0 mm - 18 W/m² -
1777593142 10° C 52% 1011.1 hPa 0 mm - 20 W/m² -
1777592841 10.56° C 52% 1011.1 hPa 0 mm - 22 W/m² -
1777592538 10.56° C 53% 1011.1 hPa 0 mm - 24 W/m² -
1777592233 10.56° C 52% 1011.1 hPa 0 mm - 30 W/m² -
1777591930 10.56° C 52% 1011.2 hPa 0 mm - 41 W/m² -
1777591626 11.11° C 50% 1011.1 hPa 0 mm - 46 W/m² -
1777591322 10.56° C 51% 1011 hPa 0 mm - 46 W/m² -
1777591018 11.11° C 52% 1011.2 hPa 0 mm - 41 W/m² -
1777590713 11.11° C 54% 1011.3 hPa 0 mm - 43 W/m² -
1777590410 11.11° C 52% 1011 hPa 0 mm - 53 W/m² -
1777590107 11.11° C 54% 1011.2 hPa 0 mm - 61 W/m² -
1777589803 11.11° C 54% 1011.3 hPa 0 mm - 73 W/m² -
1777589498 11.11° C 53% 1011.1 hPa 0 mm - 51 W/m² -
1777589197 11.11° C 54% 1011.1 hPa 0 mm - 44 W/m² -
1777588894 11.11° C 53% 1011.4 hPa 0 mm - 44 W/m² -
1777588590 11.11° C 54% 1011.3 hPa 0 mm - 45 W/m² -
1777588285 11.11° C 53% 1011.3 hPa 0 mm - 45 W/m² -
1777587981 11.11° C 52% 1011.2 hPa 0 mm - 46 W/m² -
1777587677 11.67° C 52% 1011.3 hPa 0 mm - 71 W/m² -
1777587377 11.67° C 54% 1011.1 hPa 0 mm - 48 W/m² -

* Rain latest hour (hover to see other rain measurements)
** Current wind speed in m/s (hover to see current wind gust speed)